Time,TemperatureF,DewpointF,PressureIn,WindDirection,WindDirectionDegrees,WindSpeedMPH,WindSpeedGustMPH,Humidity,HourlyPrecipIn,Conditions,Clouds,dailyrainin,SolarRadiationWatts/m^2,SoftwareType,DateUTC
2013-08-09 00:09:00,55.4,53.0,29.96,WNW,297,2.0,12.0,92,0.00,,,0.00,0,weatherlink.com 1.10,2013-08-09 07:09:00,
2013-08-09 00:24:00,55.5,53.0,29.96,WSW,242,2.0,13.0,92,0.00,,,0.00,0,weatherlink.com 1.10,2013-08-09 07:24:00,
2013-08-09 00:39:00,55.4,53.0,29.96,NW,309,7.0,12.0,91,0.00,,,0.00,0,weatherlink.com 1.10,2013-08-09 07:39:00,
2013-08-09 00:54:00,55.3,53.0,29.96,SW,229,6.0,9.0,91,0.00,,,0.00,0,weatherlink.com 1.10,2013-08-09 07:54:00,
2013-08-09 01:10:00,55.3,53.0,29.95,West,275,5.0,11.0,92,0.00,,,0.00,0,weatherlink.com 1.10,2013-08-09 08:10:00,
2013-08-09 01:25:00,55.3,53.0,29.95,WSW,242,6.0,11.0,91,0.00,,,0.00,0,weatherlink.com 1.10,2013-08-09 08:25:00,
2013-08-09 01:40:00,55.5,53.0,29.95,NNW,336,7.0,8.0,91,0.00,,,0.00,0,weatherlink.com 1.10,2013-08-09 08:40:00,
2013-08-09 01:55:00,55.5,53.0,29.95,SW,233,6.0,12.0,91,0.00,,,0.00,0,weatherlink.com 1.10,2013-08-09 08:55:00,
2013-08-09 02:10:00,55.4,53.0,29.94,WSW,237,7.0,13.0,91,0.00,,,0.00,0,weatherlink.com 1.10,2013-08-09 09:10:00,
2013-08-09 02:25:00,55.4,53.0,29.94,West,266,6.0,11.0,92,0.00,,,0.00,0,weatherlink.com 1.10,2013-08-09 09:25:00,
2013-08-09 02:40:00,55.2,53.0,29.94,West,267,5.0,14.0,91,0.00,,,0.00,0,weatherlink.com 1.10,2013-08-09 09:40:00,
2013-08-09 02:55:00,55.0,53.0,29.94,West,278,3.0,10.0,91,0.00,,,0.00,0,weatherlink.com 1.10,2013-08-09 09:55:00,
2013-08-09 03:10:00,54.8,52.0,29.94,NW,310,5.0,11.0,91,0.00,,,0.00,0,weatherlink.com 1.10,2013-08-09 10:10:00,
2013-08-09 03:25:00,54.9,52.0,29.94,SW,234,3.0,8.0,91,0.00,,,0.00,0,weatherlink.com 1.10,2013-08-09 10:25:00,
2013-08-09 03:40:00,55.0,53.0,29.93,West,279,6.0,8.0,91,0.00,,,0.00,0,weatherlink.com 1.10,2013-08-09 10:40:00,
2013-08-09 03:55:00,55.0,53.0,29.93,WNW,293,2.0,9.0,91,0.00,,,0.00,0,weatherlink.com 1.10,2013-08-09 10:55:00,
2013-08-09 04:10:00,55.1,52.0,29.93,WNW,292,5.0,11.0,90,0.00,,,0.00,0,weatherlink.com 1.10,2013-08-09 11:10:00,
2013-08-09 04:25:00,55.2,52.0,29.93,NW,306,5.0,11.0,90,0.00,,,0.00,0,weatherlink.com 1.10,2013-08-09 11:25:00,
2013-08-09 04:40:00,55.4,53.0,29.93,West,281,2.0,8.0,91,0.00,,,0.00,0,weatherlink.com 1.10,2013-08-09 11:40:00,
2013-08-09 04:55:00,55.7,53.0,29.92,SW,236,6.0,6.0,90,0.00,,,0.00,0,weatherlink.com 1.10,2013-08-09 11:55:00,
2013-08-09 05:10:00,55.5,53.0,29.92,WNW,289,4.0,6.0,90,0.00,,,0.00,0,weatherlink.com 1.10,2013-08-09 12:10:00,
2013-08-09 05:25:00,55.4,53.0,29.93,NW,306,7.0,7.0,90,0.00,,,0.00,0,weatherlink.com 1.10,2013-08-09 12:25:00,
2013-08-09 05:40:00,55.8,53.0,29.93,West,266,2.0,6.0,90,0.00,,,0.00,0,weatherlink.com 1.10,2013-08-09 12:40:00,
2013-08-09 05:55:00,55.7,52.0,29.93,West,273,4.0,12.0,88,0.00,,,0.00,0,weatherlink.com 1.10,2013-08-09 12:55:00,
2013-08-09 06:10:00,55.9,53.0,29.93,WSW,244,1.0,7.0,89,0.00,,,0.00,0,weatherlink.com 1.10,2013-08-09 13:10:00,
2013-08-09 06:25:00,55.9,53.0,29.93,WSW,238,3.0,7.0,90,0.00,,,0.00,5,weatherlink.com 1.10,2013-08-09 13:25:00,
2013-08-09 06:40:00,56.1,53.0,29.94,SW,215,2.0,6.0,89,0.00,,,0.00,11,weatherlink.com 1.10,2013-08-09 13:40:00,
2013-08-09 06:55:00,56.2,53.0,29.94,SSW,194,6.0,6.0,89,0.00,,,0.00,19,weatherlink.com 1.10,2013-08-09 13:55:00,
2013-08-09 07:10:00,56.6,54.0,29.94,SW,219,1.0,8.0,90,0.00,,,0.00,32,weatherlink.com 1.10,2013-08-09 14:10:00,
2013-08-09 07:25:00,56.8,54.0,29.94,WSW,250,4.0,9.0,89,0.00,,,0.00,44,weatherlink.com 1.10,2013-08-09 14:25:00,
2013-08-09 07:40:00,56.7,54.0,29.94,SE,134,4.0,5.0,91,0.00,,,0.00,37,weatherlink.com 1.10,2013-08-09 14:40:00,
2013-08-09 07:55:00,56.5,54.0,29.95,West,265,4.0,8.0,91,0.00,,,0.00,84,weatherlink.com 1.10,2013-08-09 14:55:00,
2013-08-09 08:10:00,56.9,53.0,29.95,West,271,6.0,11.0,88,0.00,,,0.00,109,weatherlink.com 1.10,2013-08-09 15:10:00,
2013-08-09 08:25:00,57.7,54.0,29.95,WNW,284,6.0,8.0,87,0.00,,,0.00,132,weatherlink.com 1.10,2013-08-09 15:25:00,
2013-08-09 08:40:00,57.4,54.0,29.96,West,273,3.0,12.0,87,0.00,,,0.00,146,weatherlink.com 1.10,2013-08-09 15:40:00,
2013-08-09 08:55:00,57.8,54.0,29.96,WSW,243,2.0,10.0,88,0.00,,,0.00,134,weatherlink.com 1.10,2013-08-09 15:55:00,
2013-08-09 09:10:00,57.5,54.0,29.96,WSW,246,3.0,9.0,88,0.00,,,0.00,156,weatherlink.com 1.10,2013-08-09 16:10:00,
2013-08-09 09:25:00,58.4,54.0,29.96,WNW,282,3.0,8.0,86,0.00,,,0.00,250,weatherlink.com 1.10,2013-08-09 16:25:00,
2013-08-09 09:40:00,58.6,54.0,29.96,WSW,244,6.0,11.0,85,0.00,,,0.00,202,weatherlink.com 1.10,2013-08-09 16:40:00,
2013-08-09 09:55:00,59.4,54.0,29.96,West,263,8.0,11.0,82,0.00,,,0.00,265,weatherlink.com 1.10,2013-08-09 16:55:00,
2013-08-09 10:10:00,59.7,54.0,29.96,SSW,196,3.0,11.0,81,0.00,,,0.00,341,weatherlink.com 1.10,2013-08-09 17:10:00,
2013-08-09 10:25:00,61.0,54.0,29.97,West,275,3.0,13.0,79,0.00,,,0.00,343,weatherlink.com 1.10,2013-08-09 17:25:00,
2013-08-09 10:41:00,60.3,54.0,29.96,SSW,210,1.0,11.0,81,0.00,,,0.00,322,weatherlink.com 1.10,2013-08-09 17:41:00,
2013-08-09 10:56:00,61.3,55.0,29.96,WSW,246,7.0,10.0,80,0.00,,,0.00,427,weatherlink.com 1.10,2013-08-09 17:56:00,
2013-08-09 11:11:00,63.3,55.0,29.96,West,278,4.0,11.0,75,0.00,,,0.00,446,weatherlink.com 1.10,2013-08-09 18:11:00,
2013-08-09 11:26:00,62.8,56.0,29.96,SW,232,2.0,13.0,77,0.00,,,0.00,561,weatherlink.com 1.10,2013-08-09 18:26:00,
2013-08-09 11:41:00,63.7,55.0,29.96,West,274,5.0,13.0,74,0.00,,,0.00,599,weatherlink.com 1.10,2013-08-09 18:41:00,
2013-08-09 11:56:00,64.1,56.0,29.96,WNW,286,5.0,14.0,74,0.00,,,0.00,916,weatherlink.com 1.10,2013-08-09 18:56:00,
2013-08-09 12:11:00,64.3,55.0,29.96,WSW,241,3.0,14.0,73,0.00,,,0.00,875,weatherlink.com 1.10,2013-08-09 19:11:00,
2013-08-09 12:26:00,65.3,55.0,29.96,WNW,284,5.0,14.0,70,0.00,,,0.00,889,weatherlink.com 1.10,2013-08-09 19:26:00,
2013-08-09 12:41:00,65.5,56.0,29.96,West,275,7.0,14.0,71,0.00,,,0.00,893,weatherlink.com 1.10,2013-08-09 19:41:00,
2013-08-09 12:56:00,67.1,56.0,29.96,West,281,9.0,12.0,67,0.00,,,0.00,891,weatherlink.com 1.10,2013-08-09 19:56:00,
2013-08-09 13:11:00,66.3,56.0,29.95,WNW,294,4.0,14.0,69,0.00,,,0.00,872,weatherlink.com 1.10,2013-08-09 20:11:00,
2013-08-09 13:26:00,66.8,56.0,29.95,WNW,303,10.0,12.0,68,0.00,,,0.00,856,weatherlink.com 1.10,2013-08-09 20:26:00,
2013-08-09 13:41:00,67.5,56.0,29.95,WNW,293,3.0,14.0,67,0.00,,,0.00,853,weatherlink.com 1.10,2013-08-09 20:41:00,
2013-08-09 13:56:00,69.3,56.0,29.95,WSW,252,6.0,13.0,63,0.00,,,0.00,835,weatherlink.com 1.10,2013-08-09 20:56:00,
2013-08-09 14:11:00,69.4,56.0,29.94,WNW,284,5.0,13.0,63,0.00,,,0.00,809,weatherlink.com 1.10,2013-08-09 21:11:00,
2013-08-09 14:26:00,70.3,56.0,29.94,WNW,294,5.0,15.0,61,0.00,,,0.00,775,weatherlink.com 1.10,2013-08-09 21:26:00,
2013-08-09 14:41:00,71.2,56.0,29.94,SW,223,4.0,15.0,59,0.00,,,0.00,759,weatherlink.com 1.10,2013-08-09 21:41:00,
2013-08-09 14:56:00,72.0,57.0,29.94,WSW,258,5.0,10.0,59,0.00,,,0.00,766,weatherlink.com 1.10,2013-08-09 21:56:00,
2013-08-09 15:11:00,72.0,56.0,29.93,NW,305,5.0,14.0,58,0.00,,,0.00,735,weatherlink.com 1.10,2013-08-09 22:11:00,
2013-08-09 15:26:00,72.4,57.0,29.93,West,279,8.0,14.0,58,0.00,,,0.00,701,weatherlink.com 1.10,2013-08-09 22:26:00,
2013-08-09 15:41:00,72.3,57.0,29.93,NW,317,9.0,12.0,58,0.00,,,0.00,657,weatherlink.com 1.10,2013-08-09 22:41:00,
2013-08-09 15:56:00,73.6,57.0,29.93,WNW,298,7.0,10.0,56,0.00,,,0.00,624,weatherlink.com 1.10,2013-08-09 22:56:00,
2013-08-09 16:11:00,72.7,56.0,29.92,West,267,0.0,14.0,57,0.00,,,0.00,585,weatherlink.com 1.10,2013-08-09 23:11:00,
2013-08-09 16:26:00,73.0,56.0,29.92,West,270,3.0,14.0,56,0.00,,,0.00,540,weatherlink.com 1.10,2013-08-09 23:26:00,
2013-08-09 16:41:00,73.0,56.0,29.92,WNW,302,3.0,12.0,56,0.00,,,0.00,497,weatherlink.com 1.10,2013-08-09 23:41:00,
2013-08-09 16:56:00,73.0,57.0,29.92,NW,315,5.0,10.0,57,0.00,,,0.00,446,weatherlink.com 1.10,2013-08-09 23:56:00,
2013-08-09 17:11:00,72.2,56.0,29.91,NW,315,5.0,11.0,58,0.00,,,0.00,410,weatherlink.com 1.10,2013-08-10 00:11:00,
2013-08-09 17:26:00,72.3,57.0,29.92,WNW,302,6.0,9.0,58,0.00,,,0.00,362,weatherlink.com 1.10,2013-08-10 00:26:00,
2013-08-09 17:41:00,71.0,56.0,29.92,West,279,8.0,11.0,60,0.00,,,0.00,316,weatherlink.com 1.10,2013-08-10 00:41:00,
2013-08-09 17:56:00,69.7,56.0,29.93,West,262,6.0,11.0,63,0.00,,,0.00,269,weatherlink.com 1.10,2013-08-10 00:56:00,
2013-08-09 18:11:00,68.7,56.0,29.93,SW,221,3.0,12.0,65,0.00,,,0.00,214,weatherlink.com 1.10,2013-08-10 01:11:00,
2013-08-09 18:26:00,68.2,57.0,29.92,West,281,7.0,13.0,67,0.00,,,0.00,162,weatherlink.com 1.10,2013-08-10 01:26:00,
2013-08-09 18:41:00,67.3,57.0,29.92,West,279,8.0,11.0,69,0.00,,,0.00,114,weatherlink.com 1.10,2013-08-10 01:41:00,
2013-08-09 18:56:00,66.7,57.0,29.93,NW,317,2.0,10.0,70,0.00,,,0.00,67,weatherlink.com 1.10,2013-08-10 01:56:00,
2013-08-09 19:11:00,65.4,57.0,29.93,WSW,256,6.0,9.0,73,0.00,,,0.00,35,weatherlink.com 1.10,2013-08-10 02:11:00,
2013-08-09 19:26:00,63.9,57.0,29.94,NW,308,9.0,9.0,77,0.00,,,0.00,26,weatherlink.com 1.10,2013-08-10 02:26:00,
2013-08-09 19:41:00,62.2,56.0,29.94,West,270,1.0,10.0,80,0.00,,,0.00,18,weatherlink.com 1.10,2013-08-10 02:41:00,
2013-08-09 19:56:00,61.0,55.0,29.94,West,265,8.0,14.0,81,0.00,,,0.00,9,weatherlink.com 1.10,2013-08-10 02:56:00,
2013-08-09 20:11:00,60.4,55.0,29.95,NW,304,7.0,10.0,82,0.00,,,0.00,0,weatherlink.com 1.10,2013-08-10 03:11:00,
2013-08-09 20:26:00,59.8,55.0,29.95,WSW,255,7.0,12.0,83,0.00,,,0.00,0,weatherlink.com 1.10,2013-08-10 03:26:00,
2013-08-09 20:41:00,59.3,55.0,29.95,West,273,7.0,13.0,84,0.00,,,0.00,0,weatherlink.com 1.10,2013-08-10 03:41:00,
2013-08-09 20:56:00,58.5,54.0,29.96,SW,232,0.0,7.0,85,0.00,,,0.00,0,weatherlink.com 1.10,2013-08-10 03:56:00,
2013-08-09 21:11:00,58.1,54.0,29.97,SW,233,1.0,7.0,86,0.00,,,0.00,0,weatherlink.com 1.10,2013-08-10 04:11:00,
2013-08-09 21:26:00,57.9,54.0,29.97,NW,319,0.0,10.0,87,0.00,,,0.00,0,weatherlink.com 1.10,2013-08-10 04:26:00,
2013-08-09 21:41:00,57.9,54.0,29.98,West,267,0.0,8.0,87,0.00,,,0.00,0,weatherlink.com 1.10,2013-08-10 04:41:00,
2013-08-09 21:56:00,58.0,54.0,29.98,West,281,6.0,11.0,87,0.00,,,0.00,0,weatherlink.com 1.10,2013-08-10 04:56:00,
2013-08-09 22:11:00,57.9,54.0,29.98,West,265,5.0,10.0,88,0.00,,,0.00,0,weatherlink.com 1.10,2013-08-10 05:11:00,
2013-08-09 22:26:00,58.0,55.0,29.99,SSW,202,5.0,10.0,88,0.00,,,0.00,0,weatherlink.com 1.10,2013-08-10 05:26:00,
2013-08-09 22:41:00,58.0,55.0,29.98,NW,321,3.0,6.0,88,0.00,,,0.00,0,weatherlink.com 1.10,2013-08-10 05:41:00,
2013-08-09 22:56:00,57.9,55.0,29.99,West,263,6.0,8.0,89,0.00,,,0.00,0,weatherlink.com 1.10,2013-08-10 05:56:00,
2013-08-09 23:11:00,57.9,55.0,29.99,SW,234,7.0,9.0,89,0.00,,,0.00,0,weatherlink.com 1.10,2013-08-10 06:11:00,
2013-08-09 23:26:00,57.8,55.0,29.99,West,274,5.0,9.0,89,0.00,,,0.00,0,weatherlink.com 1.10,2013-08-10 06:26:00,
2013-08-09 23:41:00,57.6,54.0,29.99,WNW,290,8.0,11.0,89,0.00,,,0.00,0,weatherlink.com 1.10,2013-08-10 06:41:00,
2013-08-09 23:56:00,57.5,55.0,29.99,West,265,4.0,12.0,90,0.00,,,0.00,0,weatherlink.com 1.10,2013-08-10 06:56:00,